User: anonymous   Login
Location: Unspecified
(0.0000°N, 0.0000°E)
Time: 11:21:52
(UTC+00:00)
Language:

AAUSAT CUBESAT 2 - Orbit

View from above orbital plane
View from above orbital plane
View from above satellite
View from above satellite

Ground track
Ground track

The orbit data is extracted from the following two-line orbital elements,

1 32788U 08021F   19347.77798453  .00000790  00000-0  77386-4 0  9994
2 32788  97.4924 355.5999 0010811 329.1849  30.8736 14.94885913631523
Epoch (UTC): 13 December 2019 18:40:17
Eccentricity: 0.0010811
inclination: 97.4924°
perigee height: 575 km
apogee height: 590 km
right ascension of ascending node: 355.5999°
argument of perigee: 329.1849°
revolutions per day: 14.94885913
mean anomaly at epoch: 30.8736°
orbit number at epoch: 63152

The dashed part of the orbit path shows where the satellite is in the earth's shadow,  

DLR